Location: Ballingbuur
(53.0000°N, 5.7667°E)
Time: 06:47:14
(UTC+00:00)

Lacrosse 4 Rocket - Pass Details

Date: 29 November 2020
Orbit: 537 x 620 km, 68.0° (Epoch: 23 January)

Event Time Altitude Azimuth Distance (km) Brightness Sun altitude
Exits shadow 03:38:20 11° 139° (SE) 1,859 4.3 -33.0°
Drops below altitude 10° 03:38:33 10° 139° (SE) 1,944 4.4 -33.0°
Sets 03:40:49 0° 141° (SE) 2,855 5.4 -32.7°
